• In Hungary
  • List of Countries
  • For 7 days
  • Water Temperature
  • Satellite Maps
  • Weather Map
  • News
  • Weather Widgets
  • user-avatar
    Login

    Hourly Weather Datteln

    Today, 23 November, Thursday

    Time Temperature Precipitation Wind Pressure Humidity
    00:00 +9°C° 0 mm 6 mps 747 mmHg 58%
    01:00 +9°C° 0 mm 6 mps 747 mmHg 60%
    02:00 +9°C° 0 mm 6 mps 747 mmHg 61%
    03:00 +9°C° 0 mm 6 mps 746 mmHg 62%
    04:00 +9°C° 0 mm 6 mps 746 mmHg 63%
    05:00 +9°C° 0 mm 7 mps 746 mmHg 64%
    06:00 +10°C° 0 mm 6 mps 745 mmHg 64%
    07:00 +10°C° 0 mm 7 mps 745 mmHg 63%
    08:00 +11°C° 0 mm 8 mps 746 mmHg 62%
    09:00 +12°C° 0 mm 9 mps 746 mmHg 61%
    10:00 +12°C° 0 mm 9 mps 746 mmHg 62%
    11:00 +13°C° 0 mm 8 mps 746 mmHg 62%
    12:00 +14°C° 0 mm 6 mps 746 mmHg 67%
    13:00 +14°C° 0.1 mm 6 mps 747 mmHg 69%
    14:00 +13°C° 0.1 mm 6 mps 747 mmHg 71%
    15:00 +13°C° 0.1 mm 6 mps 748 mmHg 74%
    16:00 +13°C° 0.2 mm 6 mps 748 mmHg 76%
    17:00 +13°C° 0.2 mm 5 mps 749 mmHg 79%
    18:00 +12°C° 0.2 mm 5 mps 750 mmHg 81%
    19:00 +10°C° 0.1 mm 5 mps 750 mmHg 80%
    20:00 +11°C° 0.1 mm 4 mps 751 mmHg 79%
    21:00 +10°C° 0.1 mm 4 mps 751 mmHg 78%
    22:00 +10°C° 0 mm 4 mps 752 mmHg 78%
    23:00 +8°C° 0 mm 4 mps 752 mmHg 78%

    Tomorrow, 24 November, Friday

    Time Temperature Precipitation Wind Pressure Humidity
    00:00 +9°C° 0 mm 3 mps 752 mmHg 79%
    01:00 +9°C° 0.1 mm 3 mps 751 mmHg 80%
    02:00 +9°C° 0.1 mm 3 mps 751 mmHg 82%
    03:00 +9°C° 0.1 mm 3 mps 750 mmHg 83%
    04:00 +10°C° 1.2 mm 4 mps 750 mmHg 83%
    05:00 +9°C° 1.2 mm 5 mps 749 mmHg 82%
    06:00 +10°C° 1.2 mm 6 mps 748 mmHg 82%
    07:00 +10°C° 0.8 mm 6 mps 749 mmHg 83%
    08:00 +10°C° 0.8 mm 6 mps 749 mmHg 84%
    09:00 +9°C° 0.8 mm 5 mps 749 mmHg 85%
    10:00 +9°C° 0.3 mm 5 mps 750 mmHg 84%
    11:00 +8°C° 0.3 mm 4 mps 751 mmHg 82%
    12:00 +8°C° 0.3 mm 4 mps 751 mmHg 81%
    13:00 +8°C° 0 mm 3 mps 752 mmHg 80%
    14:00 +8°C° 0 mm 3 mps 752 mmHg 80%
    15:00 +8°C° 0 mm 2 mps 753 mmHg 79%
    16:00 +7°C° 0 mm 2 mps 754 mmHg 81%
    17:00 +8°C° 0 mm 1 mps 754 mmHg 82%
    18:00 +7°C° 0 mm 1 mps 754 mmHg 83%
    19:00 +7°C° 0 mm 1 mps 754 mmHg 83%
    20:00 +7°C° 0 mm 1 mps 754 mmHg 83%
    21:00 +7°C° 0 mm 1 mps 754 mmHg 83%
    22:00 +7°C° 0.1 mm 1 mps 754 mmHg 84%
    23:00 +7°C° 0.1 mm 1 mps 754 mmHg 84%

    Day after tomorrow, 25 November, Saturday

    Time Temperature Precipitation Wind Pressure Humidity
    00:00 +7°C° 0.1 mm 1 mps 754 mmHg 84%
    01:00 +7°C° 0.4 mm 1 mps 753 mmHg 85%
    02:00 +7°C° 0.4 mm 1 mps 753 mmHg 86%
    03:00 +5°C° 0.4 mm 2 mps 752 mmHg 87%
    04:00 +5°C° 1 mm 2 mps 752 mmHg 87%
    05:00 +4°C° 1 mm 3 mps 752 mmHg 87%
    06:00 +4°C° 1 mm 3 mps 752 mmHg 87%
    07:00 +4°C° 0.5 mm 3 mps 752 mmHg 86%
    08:00 +4°C° 0.5 mm 3 mps 752 mmHg 85%
    09:00 +4°C° 0.5 mm 3 mps 753 mmHg 83%
    10:00 +5°C° 0.1 mm 3 mps 753 mmHg 79%
    11:00 +5°C° 0.1 mm 3 mps 753 mmHg 74%
    12:00 +7°C° 0.1 mm 3 mps 754 mmHg 69%
    13:00 +5°C° 0 mm 3 mps 754 mmHg 70%
    14:00 +5°C° 0 mm 3 mps 754 mmHg 70%
    15:00 +5°C° 0 mm 3 mps 755 mmHg 70%
    16:00 +4°C° 0 mm 3 mps 755 mmHg 72%
    17:00 +4°C° 0 mm 3 mps 756 mmHg 74%
    18:00 +3°C° 0 mm 3 mps 756 mmHg 76%
    19:00 +3°C° 0 mm 3 mps 757 mmHg 76%
    20:00 +3°C° 0 mm 3 mps 757 mmHg 76%
    21:00 +3°C° 0 mm 3 mps 757 mmHg 76%
    22:00 +2°C° 0 mm 3 mps 758 mmHg 77%
    23:00 +1°C° 0 mm 4 mps 758 mmHg 78%

    26 November, Sunday

    Time Temperature Precipitation Wind Pressure Humidity
    00:00 +1°C° 0 mm 4 mps 758 mmHg 78%
    01:00 0°C° 0 mm 4 mps 758 mmHg 80%
    02:00 0°C° 0 mm 4 mps 759 mmHg 81%
    03:00 0°C° 0 mm 4 mps 759 mmHg 82%
    04:00 0°C° 0 mm 4 mps 759 mmHg 83%
    05:00 0°C° 0 mm 5 mps 759 mmHg 83%
    06:00 0°C° 0 mm 5 mps 759 mmHg 84%
    07:00 0°C° 0 mm 5 mps 760 mmHg 82%
    08:00 +1°C° 0 mm 5 mps 760 mmHg 81%
    09:00 +1°C° 0 mm 6 mps 760 mmHg 79%
    10:00 +2°C° 0 mm 6 mps 760 mmHg 76%
    11:00 +3°C° 0 mm 6 mps 760 mmHg 73%
    12:00 +3°C° 0 mm 6 mps 761 mmHg 70%
    13:00 +3°C° 0.1 mm 6 mps 761 mmHg 71%
    14:00 +3°C° 0.1 mm 5 mps 761 mmHg 73%
    15:00 +3°C° 0.1 mm 5 mps 761 mmHg 74%
    16:00 +3°C° 0.1 mm 5 mps 761 mmHg 76%
    17:00 +2°C° 0.1 mm 5 mps 761 mmHg 78%
    18:00 +2°C° 0.1 mm 5 mps 761 mmHg 80%
    19:00 +2°C° 0.1 mm 5 mps 761 mmHg 81%
    20:00 +2°C° 0.1 mm 5 mps 761 mmHg 82%
    21:00 +2°C° 0.1 mm 5 mps 762 mmHg 83%
    22:00 +2°C° 0.1 mm 5 mps 762 mmHg 83%
    23:00 +1°C° 0.1 mm 5 mps 762 mmHg 83%

    27 November, Monday

    Time Temperature Precipitation Wind Pressure Humidity
    00:00 +1°C° 0.1 mm 5 mps 762 mmHg 83%
    01:00 +1°C° 0.2 mm 5 mps 761 mmHg 82%
    02:00 +1°C° 0.2 mm 5 mps 761 mmHg 82%
    03:00 +1°C° 0.2 mm 5 mps 761 mmHg 82%
    04:00 +1°C° 0.1 mm 5 mps 761 mmHg 81%
    05:00 +1°C° 0.1 mm 5 mps 761 mmHg 81%
    06:00 +1°C° 0.1 mm 5 mps 761 mmHg 81%
    07:00 +1°C° 0.1 mm 5 mps 761 mmHg 79%
    08:00 +1°C° 0.1 mm 5 mps 761 mmHg 77%
    09:00 +2°C° 0.1 mm 5 mps 760 mmHg 76%
    10:00 +2°C° 0.5 mm 5 mps 760 mmHg 78%
    11:00 +2°C° 0.5 mm 5 mps 759 mmHg 80%
    12:00 +3°C° 0.5 mm 5 mps 758 mmHg 83%
    13:00 +3°C° 0.7 mm 5 mps 758 mmHg 84%
    14:00 +3°C° 0.7 mm 6 mps 757 mmHg 85%
    15:00 +4°C° 0.7 mm 6 mps 756 mmHg 86%
    16:00 +4°C° 1 mm 6 mps 756 mmHg 86%
    17:00 +4°C° 1 mm 6 mps 755 mmHg 85%
    18:00 +4°C° 1 mm 7 mps 755 mmHg 84%
    19:00 +4°C° 0.3 mm 6 mps 755 mmHg 84%
    20:00 +4°C° 0.3 mm 6 mps 754 mmHg 84%
    21:00 +4°C° 0.3 mm 6 mps 754 mmHg 85%
    22:00 +4°C° 0.1 mm 6 mps 754 mmHg 85%
    23:00 +4°C° 0.1 mm 6 mps 754 mmHg 85%

    28 November, Tuesday

    Time Temperature Precipitation Wind Pressure Humidity
    00:00 +4°C° 0.1 mm 6 mps 753 mmHg 85%
    01:00 +4°C° 0.3 mm 6 mps 753 mmHg 85%
    02:00 +4°C° 0.3 mm 6 mps 752 mmHg 85%
    03:00 +4°C° 0.3 mm 6 mps 752 mmHg 86%
    04:00 +4°C° 0.5 mm 6 mps 752 mmHg 86%
    05:00 +5°C° 0.5 mm 5 mps 751 mmHg 86%
    06:00 +5°C° 0.5 mm 5 mps 751 mmHg 86%
    07:00 +5°C° 0.3 mm 5 mps 751 mmHg 85%
    08:00 +5°C° 0.3 mm 5 mps 750 mmHg 84%
    09:00 +5°C° 0.3 mm 5 mps 750 mmHg 83%
    10:00 +5°C° 0.4 mm 5 mps 750 mmHg 82%
    11:00 +4°C° 0.4 mm 6 mps 749 mmHg 82%
    12:00 +5°C° 0.4 mm 6 mps 749 mmHg 81%
    13:00 +6°C° 0.3 mm 5 mps 748 mmHg 82%
    14:00 +5°C° 0.3 mm 5 mps 748 mmHg 83%
    15:00 +5°C° 0.3 mm 5 mps 747 mmHg 84%
    16:00 +5°C° 0.5 mm 5 mps 747 mmHg 85%
    17:00 +5°C° 0.5 mm 4 mps 747 mmHg 86%
    18:00 +5°C° 0.5 mm 4 mps 747 mmHg 87%
    19:00 +5°C° 0 mm 5 mps 746 mmHg 86%
    20:00 +5°C° 0 mm 5 mps 746 mmHg 85%
    21:00 +3°C° 0 mm 5 mps 746 mmHg 85%
    22:00 +3°C° 0 mm 5 mps 746 mmHg 84%
    23:00 +3°C° 0 mm 5 mps 745 mmHg 83%
    Show more